Regional Weather Roundup
Issued by NWS

Home | Current Version | Previous Version | Text Only | Print | Product List | Glossary On
Versions: 1 2 3 4 5 6 7 8 9 10 11 12 13 14 15 16 17 18 19 20 21 22 23 24 25 26 27 28 29 30 31 32 33 34 35 36 37 38 39 40 41 42 43 44 45 46 47 48 49 50
000
ASUS43 KLSX 280010
RWRMO

WEATHER SUMMARY FOR MISSOURI
NATIONAL WEATHER SERVICE SPRINGFIELD MO
700 PM CDT FRI MAY 27 2016

NOTE: "FAIR" INDICATES FEW OR NO CLOUDS BELOW 12,000 FEET WITH NO
       SIGNIFICANT WEATHER AND/OR OBSTRUCTIONS TO VISIBILITY.
       CURRENT SKY AND/OR WEATHER CONDITIONS ARE NOT AVAILABLE FOR
       CHILLICOTHE AND FARMINGTON.

MOZ001>031-035>038-043-044-053-054-280100-
...NORTHERN AND WESTERN MISSOURI...

CITY           SKY/WX    TMP DP  RH WIND       PRES   REMARKS
KANSAS CTY INT CLOUDY    69  64  84 E6        29.70S
6HR MIN TEMP:  67; 6HR MAX TEMP:  77; 6HR PCP:  0.23;

KANSAS C DTWN  CLOUDY    72  67  84 CALM      29.68S
6HR MIN TEMP:  66; 6HR MAX TEMP:  82; 6HR PCP:  0.46;

LEE`S SUMMIT   CLOUDY    74  65  73 SW6       29.70S
6HR MIN TEMP:  74; 6HR MAX TEMP:  79; 6HR PCP: TRACE;

ST JOSEPH      CLOUDY    72  66  81 S3        29.70R
6HR MIN TEMP:  72; 6HR MAX TEMP:  77; 6HR PCP:  0.01;

CHILLICOTHE      N/A     70  66  87 VRB6      29.72R
6HR MIN TEMP:  70; 6HR MAX TEMP:  82;

KIRKSVILLE     TSTM      68  66  93 NE9       29.75R FOG
6HR MIN TEMP:  67; 6HR MAX TEMP:  83; 6HR PCP:  0.56;


$$
MOZ066>068-077>081-088>096-101>105-280100-
...SOUTHWEST MISSOURI...

CITY           SKY/WX    TMP DP  RH WIND       PRES   REMARKS
SPRINGFIELD    MOSUNNY   73  65  75 SE13      29.73F
6HR MIN TEMP:  71; 6HR MAX TEMP:  75; 6HR PCP:  0.01;

JOPLIN         CLOUDY    74  68  81 SE5       29.69F
6HR MIN TEMP:  69; 6HR MAX TEMP:  74; 6HR PCP:  0.03;

BRANSON        CLOUDY    73  66  78 S10       29.77S

$$
MOZ032>034-039>042-045>050-055>058-069>072-280100-
...CENTRAL MISSOURI...

CITY           SKY/WX    TMP DP  RH WIND       PRES   REMARKS
COLUMBIA       LGT RAIN  68  67  96 SE13      29.75R FOG
6HR MIN TEMP:  68; 6HR MAX TEMP:  81; 6HR PCP:  0.19;

JEFFERSON CITY LGT RAIN  68  66  93 S3        29.75S FOG
6HR MIN TEMP:  68; 6HR MAX TEMP:  80; 6HR PCP:  0.46;

ROLLA          CLOUDY    70  65  84 S16       29.77R
6HR MIN TEMP:  68; 6HR MAX TEMP:  79; 6HR PCP:  0.33;

SEDALIA        MOSUNNY   75  68  78 SW12      29.73R
6HR MIN TEMP:  75; 6HR MAX TEMP:  83;

WHITEMAN AFB   MOSUNNY   74  73  93 SW8       29.70S
WARRENSBURG    CLOUDY    72  66  83 S3        29.70S

$$
MOZ051-052-059>065-280100-
...EAST CENTRAL MISSOURI...

CITY           SKY/WX    TMP DP  RH WIND       PRES   REMARKS
ST LOUIS INTL  LGT RAIN  73  68  83 S15       29.80R
6HR MIN TEMP:  71; 6HR MAX TEMP:  79; 6HR PCP:  0.53;

SPIRIT OF STL  LGT RAIN  72  69  90 S10G18    29.78R
6HR MIN TEMP:  72; 6HR MAX TEMP:  79; 6HR PCP:  0.05;

ST CHARLES     LGT RAIN  70  69  97 SE13      29.77F
6HR MIN TEMP:  70; 6HR MAX TEMP:  78; 6HR PCP:  0.25;


$$
MOZ072>076-082>087-097>100-106>115-280100-
...SOUTH CENTRAL AND SOUTHEAST MISSOURI...

CITY           SKY/WX    TMP DP  RH WIND       PRES   REMARKS
CAPE GIRARDEAU CLOUDY    74  69  85 SE6       29.85F
6HR MIN TEMP:  69; 6HR MAX TEMP:  80; 6HR PCP:  0.26;

FARMINGTON     CLOUDY    69  66  90 SE7       29.84F
6HR MIN TEMP:  69; 6HR MAX TEMP:  75;

POPLAR BLUFF   CLOUDY    73  69  87 SE8       29.84R
6HR MIN TEMP:  70; 6HR MAX TEMP:  77; 6HR PCP:  0.10;

WEST PLAINS    CLOUDY    70  66  87 SE10      29.81F
6HR MIN TEMP:  69; 6HR MAX TEMP:  77; 6HR PCP:  0.11;


$$



USA.gov is the U.S. government's official web portal to all federal, state and local government web resources and services.